START_TIME,STEP,MOV.,M34,t_acc.,L5,t_acc.,L18,t_acc.,L14,t_acc.
1979-07-21 21:00:24.370 ,0,0,0.,12.0,0.,12.0,0.,12.0,0.,12.0
1979-07-21 21:00:36.370 ,0,0,0.,12.0,0.,12.0,0.,12.0,0.,12.0
1979-07-21 21:00:48.370 ,0,1,0.,12.0,0.,12.0,0.,12.0,0.,12.0
1979-07-21 21:01:00.370 ,0,1,0.,12.0,0.,12.0,0.,12.0,0.,12.0
1979-07-21 21:01:12.370 ,0,0,0.,12.0,0.,12.0,0.,12.0,0.,12.0
1979-07-21 21:01:24.370 ,0,0,0.,12.0,0.,12.0,0.,12.0,0.,12.0
1979-07-21 21:01:36.370 ,1,1,0.,12.0,0.,12.0,0.,12.0,0.,12.0
1979-07-21 21:01:48.370 ,1,1,0.,12.0,0.,12.0,0.,12.0,0.,12.0
1979-07-21 21:02:00.370 ,1,0,0.,12.0,0.,12.0,0.,12.0,0.,12.0
1979-07-21 21:02:12.370 ,1,0,0.,12.0,0.,12.0,0.,12.0,0.,12.0
1979-07-21 21:02:24.370 ,2,1,0.,12.0,0.,12.0,0.,12.0,0.,12.0
1979-07-21 21:02:36.370 ,2,1,0.,12.0,0.,12.0,0.,12.0,0.,12.0
1979-07-21 21:02:48.370 ,2,0,0.,12.0,0.,12.0,0.,12.0,0.,12.0
1979-07-21 21:03:00.370 ,2,0,0.,12.0,0.,12.0,0.,12.0,0.,12.0
1979-07-21 21:03:12.370 ,3,1,1.,12.0,0.,12.0,0.,12.0,0.,12.0
1979-07-21 21:03:24.370 ,3,1,0.,12.0,0.,12.0,0.,12.0,0.,12.0
1979-07-21 21:03:36.370 ,3,0,0.,12.0,0.,12.0,0.,12.0,0.,12.0
1979-07-21 21:03:48.370 ,3,0,0.,12.0,0.,12.0,0.,12.0,0.,12.0
1979-07-21 21:04:00.370 ,4,1,0.,12.0,0.,12.0,0.,12.0,0.,12.0
1979-07-21 21:04:12.370 ,4,1,0.,12.0,0.,12.0,0.,12.0,0.,12.0
1979-07-21 21:04:24.370 ,4,0,0.,12.0,0.,12.0,0.,12.0,0.,12.0
1979-07-21 21:04:36.370 ,4,0,0.,12.0,0.,12.0,0.,12.0,0.,12.0
1979-07-21 21:04:48.370 ,5,1,0.,12.0,0.,12.0,0.,12.0,0.,12.0
1979-07-21 21:05:00.370 ,5,1,0.,12.0,0.,12.0,0.,12.0,0.,12.0
1979-07-21 21:05:12.370 ,5,0,1.,12.0,0.,12.0,0.,12.0,0.,12.0
1979-07-21 21:05:24.370 ,5,0,0.,12.0,0.,12.0,0.,12.0,0.,12.0
1979-07-21 21:05:36.370 ,6,1,0.,12.0,0.,12.0,0.,12.0,0.,12.0
1979-07-21 21:05:48.370 ,6,1,0.,12.0,0.,12.0,0.,12.0,0.,12.0
1979-07-21 21:06:00.370 ,6,0,0.,12.0,0.,12.0,0.,12.0,0.,12.0
1979-07-21 21:06:12.370 ,6,0,0.,12.0,0.,12.0,0.,12.0,0.,12.0
1979-07-21 21:06:24.370 ,7,0,0.,12.0,0.,12.0,0.,12.0,0.,12.0
1979-07-21 21:06:36.370 ,7,0,0.,12.0,0.,12.0,0.,12.0,0.,12.0
1979-07-21 21:06:48.370 ,7,0,0.,12.0,0.,12.0,0.,12.0,0.,12.0
1979-07-21 21:07:00.370 ,7,0,0.,12.0,0.,12.0,0.,12.0,0.,12.0
1979-07-21 21:07:12.370 ,4,1,0.,12.0,0.,12.0,0.,12.0,0.,12.0
1979-07-21 21:07:24.370 ,4,1,0.,12.0,0.,12.0,0.,12.0,0.,12.0
1979-07-21 21:07:36.370 ,0,1,0.,12.0,0.,12.0,0.,12.0,0.,12.0
1979-07-21 21:07:48.370 ,0,1,0.,12.0,0.,12.0,0.,12.0,0.,12.0
1979-07-21 21:08:00.370 ,3,1,0.,12.0,0.,12.0,0.,12.0,0.,12.0
1979-07-21 21:08:12.370 ,3,1,0.,12.0,0.,12.0,0.,12.0,0.,12.0
1979-07-21 21:08:24.370 ,7,1,0.,12.0,0.,12.0,0.,12.0,0.,12.0
1979-07-21 21:08:36.370 ,7,1,0.,12.0,0.,12.0,0.,12.0,0.,12.0
